Terug naar catalogus

AEROCUBE 8C

ActiefWetenschapPO
NORAD 41853·PAYLOAD·🇺🇸 United States

Gelanceerd Nov 11, 2016 vanaf Vandenberg Space Force Base

Loading…

Volgende Passages (komende 24 uur)

TLE

VersSource: Space-Track

Epoch: Sep 14, 2026, 14:25 UTC

1 41853U 16067F   26257.60132483  .00006229  00000-0  24720-3 0  9997
2 41853  98.0397 131.6973 0006583 105.6881 254.5082 15.25748434539691

Volg AEROCUBE 8C in realtime met AllMySat

Download on the App Store